Location: Dob?e?
(49.9411°N, 15.1496°E)
Time: 12:00:16
(UTC+00:00)

DELFI C3 - Pass Details

Date: 27 October 2021
Orbit: 529 x 543 km, 97.4° (Epoch: 29 November)

Event Time Altitude Azimuth Distance (km) Brightness Sun altitude
Exits shadow 18:06:28 76° 319° (NW) 552 ? -23.3°
Drops below altitude 10° 18:10:05 10° 346° (NNW) 1,790 ? -23.9°
Sets 18:12:12 0° 347° (NNW) 2,687 ? -24.2°
